Погода в Саннивейле

США     37°22′10″N   122°02′14″W
темп.,
°C
ветер,
м/с
пор.,
м/с
влажн.,
%
обл.,
%
осадки,
мм/ч
давл.,
гПа
погр.,
м
31 июля, сб
сб3123:00+15ю227814 0.0 1016134
02:00+15ююз227699 0.0 101595
05:00+14ююз22818 0.0 101584
08:00+18ююз1263100 0.0 1017224
11:00+29юв02330 0.0 1017660
14:00+34сз12230 0.0 10151370
17:00+32сз22264 0.0 10141014
20:00+23зюз12430 0.0 1016177
1 августа, вс
вс123:00+15ю22742 0.0 1017113
02:00+14ююз11700 0.0 101767
05:00+13юз11650 0.0 101750
08:00+18зсз01450 0.0 1017192
11:00+29св12210 0.0 1017690
14:00+34зсз13140 0.0 10151617
17:00+32зюз13175 0.0 10141069
20:00+21зюз12430 0.0 1016180
2 августа, пн
пн223:00+14ю11730 0.0 101981
02:00+12ю22760 0.0 101895
05:00+12зюз11670 0.0 101853
08:00+17ссз00500 0.0 1018184
11:00+28ссв21225 0.0 1018667
14:00+33с22155 0.0 10161253
17:00+32с32205 0.0 10151021
20:00+22ссз23405 0.0 1015144
3 августа, вт
вт323:00+17с11530 0.0 1016102
02:00+15сз11560 0.0 101572
05:00+14сз00500 0.0 101531
08:00+19с11360 0.0 1016145
11:00+29ссв21190 0.0 1015516
14:00+34с33150 0.0 10131177
17:00+32ссз33180 0.0 1012901
20:00+21ссз22370 0.0 1013148
4 августа, ср
ср423:00+16ссз12560 0.0 1015105
02:00+13сз11670 0.0 1014114
05:00+12зсз01760 0.0 101592
08:00+16ссз01560 0.0 1016196
11:00+26с22270 0.0 1015668
14:00+31ссз44220 0.0 10141233
17:00+28ссз44280 0.0 1014852
20:00+18сз34630 0.0 1016231